Terminal Aerodrome Forecast
Issued by NWS Omaha/Valley, NE

Home | Current Version | Previous Version | Text Only | Print | Product List | Glossary On
Versions: 1 2 3 4 5 6 7 8 9 10 11 12 13 14 15 16 17 18 19 20 21 22 23 24 25 26 27 28 29 30 31 32 33 34 35
000
FTUS43 KOAX 041130
TAFOFK
TAF
KOFK 041130Z 0412/0512 16008KT P6SM -SHRA BKN080
      TEMPO 0412/0413 VRB10G20KT 6SM -TSRA BKN040CB
     FM041400 15009KT P6SM BKN150=

USA.gov is the U.S. government's official web portal to all federal, state and local government web resources and services.